TimeGMT,TemperatureF,Dew PointF,Humidity,Sea Level PressureIn,VisibilityMPH,Wind Direction,Wind SpeedMPH,Gust SpeedMPH,PrecipitationIn,Events,Conditions,WindDirDegrees,DateUTC
12:20 AM,44.6,42.8,93,28.85,6.2,SSE,3.5,-,N/A,,Scattered Clouds,150,2012-11-01 00:20:00
12:50 AM,42.8,41.0,93,28.85,6.2,South,4.6,-,N/A,,Scattered Clouds,170,2012-11-01 00:50:00
1:20 AM,42.8,41.0,93,28.85,-9999.0,SSE,3.5,-,N/A,,Clear,160,2012-11-01 01:20:00
1:50 AM,42.8,41.0,93,28.85,-9999.0,South,4.6,-,N/A,,Clear,180,2012-11-01 01:50:00
2:50 AM,43,42,92,,,WSW,1.2,,,,,240,2012-11-01 02:50:00
5:20 AM,39.2,37.4,93,28.82,6.2,Variable,1.2,-,N/A,,Scattered Clouds,0,2012-11-01 05:20:00
5:50 AM,38,37,97,,,NNW,1.2,,,,,340,2012-11-01 05:50:00
5:50 AM,39.2,37.4,93,28.82,6.2,Variable,2.3,-,N/A,,Partly Cloudy,0,2012-11-01 05:50:00
6:20 AM,39.2,37.4,93,28.82,6.2,Calm,Calm,-,N/A,,Scattered Clouds,0,2012-11-01 06:20:00
6:50 AM,37.4,35.6,93,28.82,6.2,Calm,Calm,-,N/A,,Scattered Clouds,0,2012-11-01 06:50:00
7:20 AM,37.4,37.4,100,28.82,6.2,Calm,Calm,-,N/A,,Scattered Clouds,0,2012-11-01 07:20:00
7:50 AM,39.2,37.4,93,28.85,6.2,Variable,3.5,-,N/A,,Scattered Clouds,0,2012-11-01 07:50:00
8:20 AM,39.2,39.2,100,28.85,6.2,Variable,1.2,-,N/A,,Scattered Clouds,0,2012-11-01 08:20:00
8:50 AM,42,42,100,,,WSW,3.5,,,,,250,2012-11-01 08:50:00
8:50 AM,41.0,39.2,93,28.85,6.2,Calm,Calm,-,N/A,,Scattered Clouds,0,2012-11-01 08:50:00
9:20 AM,42.8,41.0,93,28.88,6.2,West,5.8,-,N/A,,Scattered Clouds,270,2012-11-01 09:20:00
9:50 AM,44.6,41.0,87,28.88,6.2,West,10.4,-,N/A,Rain,Rain Showers,280,2012-11-01 09:50:00
10:20 AM,44.6,39.2,81,28.91,6.2,West,12.7,-,N/A,,Scattered Clouds,260,2012-11-01 10:20:00
10:50 AM,44.6,41.0,87,28.91,6.2,West,11.5,-,N/A,Rain,Rain Showers,270,2012-11-01 10:50:00
11:20 AM,46.4,41.0,81,28.94,6.2,WNW,9.2,-,N/A,Rain,Rain Showers,290,2012-11-01 11:20:00
11:50 AM,47,40,70,,,West,8.1,,,,,270,2012-11-01 11:50:00
11:50 AM,46.4,39.2,76,28.94,6.2,WSW,9.2,-,N/A,,Scattered Clouds,250,2012-11-01 11:50:00
12:20 PM,50.0,41.0,71,28.94,6.2,West,15.0,28.8,N/A,,Scattered Clouds,270,2012-11-01 12:20:00
12:50 PM,50.0,41.0,71,28.94,6.2,West,15.0,-,N/A,,Scattered Clouds,280,2012-11-01 12:50:00
1:20 PM,48.2,37.4,66,28.97,6.2,West,15.0,-,N/A,,Scattered Clouds,280,2012-11-01 13:20:00
1:50 PM,48.2,37.4,66,28.97,6.2,WNW,13.8,-,N/A,,Scattered Clouds,290,2012-11-01 13:50:00
2:20 PM,48.2,41.0,76,29.00,6.2,West,17.3,28.8,N/A,Rain,Rain Showers,280,2012-11-01 14:20:00
2:50 PM,46,36,60,,,West,9.2,,,,,270,2012-11-01 14:50:00
2:50 PM,46.4,37.4,71,29.00,6.2,West,11.5,-,N/A,,Scattered Clouds,270,2012-11-01 14:50:00
3:20 PM,44.6,37.4,76,29.03,6.2,WSW,10.4,-,N/A,,Scattered Clouds,250,2012-11-01 15:20:00
3:50 PM,44.6,35.6,71,29.03,6.2,WSW,13.8,-,N/A,,Scattered Clouds,240,2012-11-01 15:50:00
4:20 PM,42.8,35.6,76,29.03,6.2,WSW,10.4,-,N/A,,Scattered Clouds,240,2012-11-01 16:20:00
4:50 PM,42.8,35.6,76,29.06,6.2,SW,8.1,-,N/A,,Scattered Clouds,220,2012-11-01 16:50:00
5:20 PM,42.8,35.6,76,29.06,6.2,SW,10.4,-,N/A,,Scattered Clouds,220,2012-11-01 17:20:00
5:50 PM,42,38,82,,,West,15.0,,,,,260,2012-11-01 17:50:00
5:50 PM,42.8,37.4,81,29.09,6.2,WSW,17.3,31.1,N/A,Rain,Rain Showers,250,2012-11-01 17:50:00
6:20 PM,42.8,35.6,76,29.09,6.2,SW,9.2,-,N/A,,Partly Cloudy,230,2012-11-01 18:20:00
6:50 PM,41.0,37.4,87,29.09,6.2,SW,8.1,-,N/A,Rain,Rain Showers,220,2012-11-01 18:50:00
7:20 PM,41.0,37.4,87,29.12,6.2,SW,10.4,-,N/A,,Partly Cloudy,220,2012-11-01 19:20:00
7:50 PM,41.0,35.6,81,29.12,6.2,SW,12.7,-,N/A,,Partly Cloudy,220,2012-11-01 19:50:00
8:20 PM,41.0,35.6,81,29.12,6.2,SSW,11.5,-,N/A,,Partly Cloudy,210,2012-11-01 20:20:00
8:50 PM,42,37,77,,,WSW,12.7,,,,,240,2012-11-01 20:50:00
8:50 PM,41.0,37.4,87,29.12,6.2,SW,11.5,-,N/A,,Partly Cloudy,220,2012-11-01 20:50:00
9:20 PM,42.8,37.4,81,29.12,6.2,SW,10.4,-,N/A,Rain,Light Rain Showers,220,2012-11-01 21:20:00
9:50 PM,42.8,39.2,87,29.15,6.2,SW,10.4,-,N/A,,Scattered Clouds,230,2012-11-01 21:50:00
10:20 PM,44.6,37.4,76,29.15,6.2,SW,11.5,-,N/A,,Partly Cloudy,220,2012-11-01 22:20:00
10:50 PM,42.8,39.2,87,29.18,6.2,SW,10.4,-,N/A,,Partly Cloudy,220,2012-11-01 22:50:00
11:20 PM,44.6,39.2,81,29.18,6.2,SW,16.1,-,N/A,Rain,Light Rain Showers,230,2012-11-01 23:20:00
11:50 PM,44,39,76,,,WSW,13.8,,,,,240,2012-11-01 23:50:00
11:50 PM,44.6,39.2,81,29.18,6.2,SW,13.8,-,N/A,,Partly Cloudy,220,2012-11-01 23:50:00